• In Kazakhstan
  • List of Countries
  • For 7 days
  • Water Temperature
  • Satellite Maps
  • Weather Map
  • News
  • Weather Widgets
  • user-avatar
    Login

    Hourly Weather Castiglione delle Stiviere

    Today, 20 April, Saturday

    Time Temperature Precipitation Wind Pressure Humidity
    00:00 +13°C° 0 mm 1 mps 762 mmHg 66%
    01:00 +13°C° 0 mm 1 mps 762 mmHg 65%
    02:00 +13°C° 0 mm 1 mps 762 mmHg 66%
    03:00 +12°C° 0 mm 2 mps 762 mmHg 67%
    04:00 +12°C° 0 mm 2 mps 762 mmHg 68%
    05:00 +13°C° 0 mm 2 mps 762 mmHg 68%
    06:00 +13°C° 0 mm 1 mps 762 mmHg 67%
    07:00 +14°C° 0 mm 1 mps 762 mmHg 64%
    08:00 +16°C° 0 mm 1 mps 761 mmHg 59%
    09:00 +19°C° 0 mm 1 mps 761 mmHg 53%
    10:00 +21°C° 0 mm 1 mps 761 mmHg 47%
    11:00 +22°C° 0 mm 1 mps 761 mmHg 44%
    12:00 +23°C° 0 mm 1 mps 761 mmHg 41%
    13:00 +23°C° 0 mm 2 mps 760 mmHg 38%
    14:00 +23°C° 0 mm 2 mps 760 mmHg 39%
    15:00 +23°C° 0 mm 2 mps 759 mmHg 40%
    16:00 +22°C° 0 mm 3 mps 759 mmHg 41%
    17:00 +21°C° 0 mm 2 mps 759 mmHg 45%
    18:00 +19°C° 0 mm 2 mps 759 mmHg 50%
    19:00 +17°C° 0 mm 2 mps 759 mmHg 54%
    20:00 +17°C° 0 mm 2 mps 759 mmHg 54%
    21:00 +16°C° 0 mm 2 mps 759 mmHg 53%
    22:00 +15°C° 0 mm 2 mps 760 mmHg 52%
    23:00 +15°C° 0 mm 2 mps 760 mmHg 53%

    Tomorrow, 21 April, Sunday

    Time Temperature Precipitation Wind Pressure Humidity
    00:00 +14°C° 0 mm 2 mps 760 mmHg 54%
    01:00 +14°C° 0 mm 2 mps 759 mmHg 54%
    02:00 +14°C° 0 mm 2 mps 759 mmHg 56%
    03:00 +13°C° 0 mm 1 mps 759 mmHg 57%
    04:00 +13°C° 0 mm 1 mps 758 mmHg 58%
    05:00 +14°C° 0 mm 1 mps 758 mmHg 59%
    06:00 +14°C° 0 mm 1 mps 758 mmHg 60%
    07:00 +15°C° 0 mm 1 mps 757 mmHg 62%
    08:00 +16°C° 0 mm 1 mps 757 mmHg 57%
    09:00 +19°C° 0 mm 1 mps 757 mmHg 52%
    10:00 +21°C° 0 mm 1 mps 756 mmHg 47%
    11:00 +21°C° 0 mm 1 mps 756 mmHg 46%
    12:00 +21°C° 0 mm 2 mps 756 mmHg 44%
    13:00 +23°C° 0 mm 2 mps 755 mmHg 43%
    14:00 +23°C° 0 mm 2 mps 755 mmHg 44%
    15:00 +23°C° 0 mm 2 mps 754 mmHg 44%
    16:00 +23°C° 0 mm 2 mps 754 mmHg 44%
    17:00 +21°C° 0 mm 2 mps 754 mmHg 51%
    18:00 +19°C° 0 mm 2 mps 754 mmHg 57%
    19:00 +17°C° 0 mm 2 mps 754 mmHg 63%
    20:00 +16°C° 0 mm 2 mps 754 mmHg 62%
    21:00 +16°C° 0 mm 2 mps 754 mmHg 62%
    22:00 +15°C° 0 mm 2 mps 755 mmHg 62%
    23:00 +14°C° 0 mm 2 mps 754 mmHg 64%

    Day after tomorrow, 22 April, Monday

    Time Temperature Precipitation Wind Pressure Humidity
    00:00 +13°C° 0 mm 2 mps 754 mmHg 65%
    01:00 +13°C° 0 mm 2 mps 754 mmHg 67%
    02:00 +12°C° 0 mm 2 mps 754 mmHg 68%
    03:00 +12°C° 0 mm 2 mps 753 mmHg 69%
    04:00 +12°C° 0 mm 2 mps 753 mmHg 69%
    05:00 +13°C° 0 mm 2 mps 752 mmHg 70%
    06:00 +13°C° 0 mm 2 mps 752 mmHg 70%
    07:00 +13°C° 0 mm 2 mps 751 mmHg 70%
    08:00 +14°C° 0 mm 2 mps 751 mmHg 66%
    09:00 +14°C° 0 mm 3 mps 750 mmHg 63%
    10:00 +17°C° 0 mm 3 mps 750 mmHg 60%
    11:00 +18°C° 0 mm 4 mps 749 mmHg 57%
    12:00 +19°C° 0 mm 5 mps 749 mmHg 55%
    13:00 +20°C° 0 mm 6 mps 749 mmHg 53%
    14:00 +20°C° 0 mm 6 mps 748 mmHg 55%
    15:00 +19°C° 0 mm 6 mps 747 mmHg 56%
    16:00 +18°C° 0 mm 7 mps 747 mmHg 58%
    17:00 +17°C° 0 mm 6 mps 747 mmHg 62%
    18:00 +16°C° 0 mm 6 mps 747 mmHg 67%
    19:00 +14°C° 0 mm 5 mps 746 mmHg 71%
    20:00 +14°C° 0 mm 5 mps 746 mmHg 70%
    21:00 +14°C° 0 mm 5 mps 747 mmHg 69%
    22:00 +14°C° 0 mm 5 mps 747 mmHg 69%
    23:00 +14°C° 0.5 mm 4 mps 746 mmHg 73%

    23 April, Tuesday

    Time Temperature Precipitation Wind Pressure Humidity
    00:00 +13°C° 0.5 mm 4 mps 745 mmHg 77%
    01:00 +13°C° 0.5 mm 4 mps 745 mmHg 81%
    02:00 +13°C° 0.7 mm 3 mps 744 mmHg 82%
    03:00 +13°C° 0.7 mm 3 mps 744 mmHg 83%
    04:00 +13°C° 0.7 mm 3 mps 743 mmHg 84%
    05:00 +13°C° 0.2 mm 3 mps 743 mmHg 83%
    06:00 +13°C° 0.2 mm 3 mps 743 mmHg 83%
    07:00 +13°C° 0.2 mm 3 mps 743 mmHg 82%
    08:00 +14°C° 0.1 mm 3 mps 743 mmHg 80%
    09:00 +15°C° 0.1 mm 4 mps 743 mmHg 77%
    10:00 +17°C° 0.1 mm 4 mps 743 mmHg 74%
    11:00 +18°C° 0.3 mm 4 mps 743 mmHg 74%
    12:00 +17°C° 0.3 mm 5 mps 743 mmHg 74%
    13:00 +17°C° 0.3 mm 5 mps 743 mmHg 74%
    14:00 +18°C° 2.2 mm 4 mps 743 mmHg 78%
    15:00 +17°C° 2.2 mm 4 mps 743 mmHg 81%
    16:00 +15°C° 2.2 mm 4 mps 742 mmHg 85%
    17:00 +15°C° 1.2 mm 4 mps 743 mmHg 86%
    18:00 +15°C° 1.2 mm 4 mps 743 mmHg 86%
    19:00 +14°C° 1.2 mm 4 mps 743 mmHg 87%
    20:00 +14°C° 0.5 mm 3 mps 744 mmHg 87%
    21:00 +14°C° 0.5 mm 3 mps 744 mmHg 87%
    22:00 +14°C° 0.5 mm 2 mps 745 mmHg 88%
    23:00 +14°C° 0.6 mm 2 mps 745 mmHg 89%

    24 April, Wednesday

    Time Temperature Precipitation Wind Pressure Humidity
    00:00 +14°C° 0.6 mm 1 mps 746 mmHg 90%
    01:00 +14°C° 0.6 mm 1 mps 746 mmHg 91%
    02:00 +14°C° 0.4 mm 1 mps 746 mmHg 92%
    03:00 +14°C° 0.4 mm 2 mps 747 mmHg 92%
    04:00 +13°C° 0.4 mm 2 mps 747 mmHg 93%
    05:00 +14°C° 0.2 mm 2 mps 747 mmHg 92%
    06:00 +14°C° 0.2 mm 2 mps 748 mmHg 92%
    07:00 +14°C° 0.2 mm 2 mps 748 mmHg 92%
    08:00 +16°C° 0.2 mm 2 mps 749 mmHg 86%
    09:00 +18°C° 0.2 mm 2 mps 749 mmHg 80%
    10:00 +19°C° 0.2 mm 2 mps 750 mmHg 74%
    11:00 +20°C° 0.6 mm 2 mps 750 mmHg 68%
    12:00 +22°C° 0.6 mm 1 mps 750 mmHg 63%
    13:00 +23°C° 0.6 mm 1 mps 750 mmHg 58%
    14:00 +23°C° 0.1 mm 1 mps 750 mmHg 58%
    15:00 +23°C° 0.1 mm 1 mps 750 mmHg 58%
    16:00 +23°C° 0.1 mm 2 mps 749 mmHg 59%
    17:00 +21°C° 0.1 mm 2 mps 750 mmHg 64%
    18:00 +20°C° 0.1 mm 3 mps 750 mmHg 69%
    19:00 +19°C° 0.1 mm 3 mps 750 mmHg 74%
    20:00 +18°C° 0.4 mm 4 mps 751 mmHg 77%
    21:00 +18°C° 0.4 mm 4 mps 751 mmHg 80%
    22:00 +17°C° 0.4 mm 4 mps 752 mmHg 83%
    23:00 +17°C° 0.4 mm 3 mps 752 mmHg 84%

    25 April, Thursday

    Time Temperature Precipitation Wind Pressure Humidity
    00:00 +16°C° 0.4 mm 3 mps 752 mmHg 85%
    01:00 +16°C° 0.4 mm 3 mps 752 mmHg 86%
    02:00 +16°C° 0.1 mm 3 mps 752 mmHg 87%
    03:00 +15°C° 0.1 mm 2 mps 752 mmHg 88%
    04:00 +15°C° 0.1 mm 2 mps 752 mmHg 89%
    05:00 +16°C° 0.1 mm 2 mps 752 mmHg 88%
    06:00 +16°C° 0.1 mm 2 mps 752 mmHg 87%
    07:00 +16°C° 0.1 mm 2 mps 752 mmHg 86%
    08:00 +17°C° 0.1 mm 2 mps 752 mmHg 84%
    09:00 +17°C° 0.1 mm 2 mps 753 mmHg 82%
    10:00 +18°C° 0.1 mm 2 mps 753 mmHg 81%
    11:00 +19°C° 0 mm 2 mps 753 mmHg 75%
    12:00 +21°C° 0 mm 3 mps 752 mmHg 69%
    13:00 +22°C° 0 mm 3 mps 752 mmHg 63%
    14:00 +22°C° 0.1 mm 4 mps 752 mmHg 65%
    15:00 +22°C° 0.1 mm 4 mps 752 mmHg 67%
    16:00 +22°C° 0.1 mm 5 mps 751 mmHg 69%
    17:00 +20°C° 0.6 mm 4 mps 751 mmHg 74%
    18:00 +19°C° 0.6 mm 4 mps 751 mmHg 78%
    19:00 +18°C° 0.6 mm 4 mps 751 mmHg 83%
    20:00 +17°C° 1.3 mm 3 mps 751 mmHg 85%
    21:00 +16°C° 1.3 mm 3 mps 751 mmHg 87%
    22:00 +16°C° 1.3 mm 3 mps 751 mmHg 89%
    23:00 +16°C° 0.7 mm 2 mps 751 mmHg 90%
    Show more